TimeEST,TemperatureF,Dew PointF,Humidity,Sea Level PressureIn,VisibilityMPH,Wind Direction,Wind SpeedMPH,Gust SpeedMPH,PrecipitationIn,Events,Conditions,WindDirDegrees,DateUTC
12:51 AM,27.0,21.9,81,29.91,7.0,WNW,4.6,-,N/A,,Mostly Cloudy,290,2013-02-24 05:51:00
1:32 AM,28.4,24.8,86,29.88,6.0,West,3.5,-,N/A,,Haze,280,2013-02-24 06:32:00
1:51 AM,28.9,24.1,82,29.92,6.0,West,3.5,-,N/A,,Haze,280,2013-02-24 06:51:00
2:51 AM,28.9,24.1,82,29.92,6.0,West,3.5,-,N/A,,Haze,280,2013-02-24 07:51:00
3:51 AM,28.9,21.9,75,29.93,6.0,WNW,9.2,-,N/A,,Haze,300,2013-02-24 08:51:00
4:51 AM,28.0,21.9,78,29.94,6.0,NW,9.2,-,N/A,,Haze,310,2013-02-24 09:51:00
5:51 AM,28.0,21.0,75,29.95,7.0,WNW,10.4,-,N/A,,Overcast,300,2013-02-24 10:51:00
6:51 AM,27.0,19.0,72,29.98,8.0,WNW,10.4,-,N/A,,Overcast,290,2013-02-24 11:51:00
7:51 AM,27.0,19.0,72,29.99,6.0,West,9.2,-,N/A,,Haze,280,2013-02-24 12:51:00
8:51 AM,27.0,18.0,69,30.01,6.0,West,15.0,-,N/A,,Haze,280,2013-02-24 13:51:00
9:51 AM,27.0,19.9,75,30.03,3.0,WNW,11.5,19.6,0.00,Snow,Light Snow,300,2013-02-24 14:51:00
10:51 AM,27.0,21.0,78,30.04,2.0,West,5.8,-,0.00,Snow,Light Snow,270,2013-02-24 15:51:00
11:07 AM,28.4,19.4,69,30.00,3.0,West,8.1,-,0.00,Snow,Light Snow,270,2013-02-24 16:07:00
11:51 AM,28.9,19.0,67,30.05,3.0,WNW,12.7,-,0.00,Snow,Light Snow,290,2013-02-24 16:51:00
12:51 PM,30.0,19.9,66,30.06,5.0,West,12.7,-,0.00,Snow,Light Snow,280,2013-02-24 17:51:00
1:51 PM,30.9,21.0,67,30.05,5.0,West,12.7,-,0.00,Snow,Light Snow,270,2013-02-24 18:51:00
2:51 PM,32.0,21.0,64,30.06,6.0,WNW,11.5,-,0.00,Snow,Light Snow,290,2013-02-24 19:51:00
3:51 PM,32.0,21.0,64,30.07,7.0,WNW,11.5,-,0.00,,Overcast,300,2013-02-24 20:51:00
4:51 PM,32.0,21.9,66,30.09,7.0,West,8.1,-,N/A,,Overcast,270,2013-02-24 21:51:00
5:51 PM,32.0,23.0,69,30.11,5.0,WNW,6.9,-,0.00,Snow,Light Snow,290,2013-02-24 22:51:00
6:51 PM,30.9,23.0,72,30.13,8.0,West,5.8,-,0.00,,Overcast,260,2013-02-24 23:51:00
7:51 PM,30.9,23.0,72,30.15,8.0,West,3.5,-,N/A,,Overcast,270,2013-02-25 00:51:00
8:51 PM,30.9,24.1,76,30.16,7.0,WSW,4.6,-,N/A,,Overcast,250,2013-02-25 01:51:00
9:51 PM,30.9,24.1,76,30.16,7.0,Calm,Calm,-,N/A,,Overcast,0,2013-02-25 02:51:00
10:51 PM,30.0,24.1,79,30.16,7.0,WSW,3.5,-,N/A,,Overcast,240,2013-02-25 03:51:00
11:51 PM,30.9,24.1,76,30.16,7.0,West,3.5,-,N/A,,Overcast,270,2013-02-25 04:51:00